Regional Weather Roundup
Issued by NWS

Home | Current Version | Previous Version | Text Only | Print | Product List | Glossary On
Versions: 1 2 3 4 5 6 7 8 9 10 11 12 13 14 15 16 17 18 19 20 21 22 23 24 25 26 27 28 29 30 31 32 33 34 35 36 37 38 39 40 41 42 43 44 45 46 47 48 49 50
000
ASUS44 KBMX 310810
RWRAL

ALABAMA REGIONAL WEATHER ROUNDUP
NATIONAL WEATHER SERVICE BIRMINGHAM AL
300 AM CDT TUE MAY 31 2016

NOTE: "FAIR" INDICATES FEW OR NO CLOUDS BELOW 12,000 FEET
WITH NO SIGNIFICANT WEATHER AND/OR OBSTRUCTIONS TO VISIBILITY.

THE REMARK "TC" DENOTES TEMPERATURE IN DEGREES CELSIUS.

ALZ001>011-014-016>018-020-310900-
NORTH ALABAMA

CITY           SKY/WX    TMP DP  RH WIND       PRES   REMARKS
MUSCLE SHOALS  PTCLDY    67  62  84 CALM      29.94F
HUNTSVILLE     CLEAR     68  59  73 CALM      29.93F
DECATUR        PTCLDY    64  61  90 CALM      29.93F
HALEYVILLE     FAIR      64  61  90 CALM      29.96S
GADSDEN        CLEAR     64  63  96 CALM      29.93S
$$

ALZ012-013-022-023-030>036-040>044-310900-
WEST CENTRAL ALABAMA

CITY           SKY/WX    TMP DP  RH WIND       PRES   REMARKS
TUSCALOOSA     PTCLDY    69  68  96 CALM      29.91F
$$

ALZ015-024>027-033>036-040>044-310900-
CENTRAL ALABAMA

CITY           SKY/WX    TMP DP  RH WIND       PRES   REMARKS
BIRMINGHAM     CLEAR     70  66  87 CALM      29.94F
MONTGOMERY     CLOUDY    72  66  81 CALM      29.91S
SHELBY CO ARPT CLEAR     69  66  90 CALM      29.92S
MAXWELL AFB    CLOUDY    69  69  97 CALM      29.90S
GREENVILLE     FAIR      73  65  75 NW3       29.91F
$$

ALZ019-021-028-029-037-038-045>048-310900-
EAST CENTRAL ALABAMA

CITY           SKY/WX    TMP DP  RH WIND       PRES   REMARKS
ANNISTON       CLOUDY    68  63  84 CALM      29.93S
ALEXANDER CITY CLOUDY    67  67 100 CALM      29.92F
AUBURN         CLEAR    N/A N/A N/A CALM      29.92F
$$

ALZ051>064-310900-
SOUTHWEST ALABAMA

CITY           SKY/WX    TMP DP  RH WIND       PRES   REMARKS
MOBILE         PTCLDY    71  67  87 W3        29.93F
BROOKLEY FIELD PTCLDY    75  69  81 W5        29.93F
EVERGREEN      CLEAR     68  66  93 CALM      29.92F
$$

ALZ049-050-065>069-310900-
SOUTHEAST ALABAMA

CITY           SKY/WX    TMP DP  RH WIND       PRES   REMARKS
DOTHAN         CLEAR     73  67  81 CALM      29.94F
OZARK          CLEAR     70  68  93 SW1       29.91S
TROY           CLEAR     68  66  93 CALM      29.92S
EUFAULA        FAIR      66  64  93 CALM      29.90S
$$



USA.gov is the U.S. government's official web portal to all federal, state and local government web resources and services.